Location: Ammerl�gen
(47.2167°N, 9.6000°E)
Time: 07:13:08
(UTC+00:00)

Iridium 4 Rocket - Pass Details

Date: 01 August 2021
Orbit: 584 x 904 km, 86.9° (Epoch: 18 September)

Event Time Altitude Azimuth Distance (km) Brightness Sun altitude
Rises 01:00:34 0° 358° (N) 3,416 7.9 -21.5°
Reaches altitude 10° 01:02:56 10° 359° (N) 2,511 7.1 -21.4°
Maximum altitude 01:08:41 80° 87° (E) 912 3.8 -21.0°
Enters shadow 01:11:32 32° 170° (S) 1,487 4.5 -20.8°
